Regional Weather Roundup
Issued by NWS

Home | Current Version | Previous Version | Graphics & Text | Print | Product List | Glossary On
Versions: 1 2 3 4 5 6 7 8 9 10 11 12 13 14 15 16 17 18 19 20 21 22 23 24 25 26 27 28 29 30 31 32 33 34 35 36 37 38 39 40 41 42 43 44 45 46 47 48 49 50
000
ASUS45 KTFX 300819
RWRMT
MONTANA HOURLY WEATHER ROUNDUP
NATIONAL WEATHER SERVICE GREAT FALLS MT
219 AM MDT THU OCT 30 2014

NOTE: "FAIR" INDICATES FEW OR NO CLOUDS BELOW 12000 FEET WITH NO
SIGNIFICANT WEATHER AND/OR OBSTRUCTIONS TO VISIBILITY.

* THESE STATIONS ARE NOT UNDER NWS QUALITY CONTROL. THEY DO NOT
   REPORT WEATHER SUCH AS PRECIPITATION OR FOG.

MTZ001>007-043-300900-
WEST OF THE DIVIDE
CITY           SKY/WX    TMP DP  RH WIND       PRES   REMARKS
KALISPELL      FOG       39  39 100 CALM      30.25R VSB 1/2
MISSOULA       CLOUDY    37  37 100 CALM      30.28R
BUTTE          CLOUDY    30  27  89 CALM      30.29S
MULLAN PASS    FOG       34  34 100 S8        30.23S VSB M1/4 WCI  27
* ANACONDA     PTCLDY    32  28  85 S3         N/A
* DEER LODGE   PTCLDY    32  28  85 N/A        N/A
* ESSEX        N/A       38  37  96 N/A        N/A
* HAMILTON APT MOCLDY    37  34  89 S2         N/A
* LIBBY APT    PTCLDY    41  39  93 N/A        N/A
* LINCOLN      N/A       30  29  96 NW2        N/A
* LOOKOUT PASS N/A       40  40 100 S7         N/A   WCI  35
* POLSON       N/A       37  37 100 N/A        N/A
* RONAN APT    PTCLDY    36  34  92 N/A        N/A
* SEELEY LAKE  N/A       28  27  96 N/A        N/A
* THOMP F APT  CLEAR     38  26  62 N6         N/A   WCI  33
* YAAK HILL    N/A       44  42  93 N/A        N/A
$$

MTZ008-052>055-300900-
SOUTHWEST MONTANA
CITY           SKY/WX    TMP DP  RH WIND       PRES   REMARKS
BOZEMAN        CLEAR     27  23  85 VRB5      30.28R WCI  21
DILLON         PTCLDY    30  27  89 S7        30.27S WCI  23
W YELLOWSTONE  CLEAR     25  25 100 CALM      30.32R
* ENNIS APT    PTCLDY    32  25  75 NW3        N/A
* THREE FORKS  CLEAR     28  28 100 N/A        N/A
* BOULDER HILL N/A       36  23  59 SW4        N/A
* RAYNOLDS PAS N/A       30  10  43 SE4        N/A
* WHITEHALL    N/A       33  25  72 N3G10      N/A
* WISE RIVER   N/A       30  27  89 SW2        N/A
$$

MTZ009>010-012-014-046-048-049-054-300900-
EAST SLOPES AND CENTRAL MONTANA
CITY           SKY/WX    TMP DP  RH WIND       PRES   REMARKS
CUT BANK       CLEAR     36  30  79 NW5       30.19R WCI  32
GREAT FALLS    CLEAR     37  32  82 SW10      30.21R WCI  30
HELENA         PTCLDY    37  32  82 CALM      30.26R
MALMSTROM AFB  CLEAR     45  34  65 SW10      30.23R
* CONRAD       CLEAR     27  25  92 N/A        N/A
* DEARBORN     N/A       40  33  76 S4         N/A
* EAST GLACIER N/A       41  33  73 W16G23     N/A
* MONARCH      N/A       36  21  54 S7         N/A   WCI  30
* SAINT MARY   N/A       44  32  63 S7G16      N/A
* SWEET GRASS  N/A       40  32  73 S13        N/A   WCI  32
* WHITE SULPH  N/A       32  26  79 NE6        N/A   WCI  26
$$

MTZ011-013-016-021-035-040-045-047-050-051-300900-
NORTH CENTRAL MONTANA
CITY           SKY/WX    TMP DP  RH WIND       PRES   REMARKS
HAVRE          PTCLDY    36  32  85 SW9       30.19R WCI  29
LEWISTOWN      CLEAR     36  28  73 VRB3      30.22R
* N BAR RANCH  CLEAR     37  28  70 NW5       30.24R WCI  33
* FORT BENTON  CLEAR     39  32  76 CALM      30.22R
* CHESTER      N/A       37  31  79 N/A        N/A
* DENTON       N/A       36  30  79 S7         N/A   WCI  30
* GEYSER       N/A       38  29  70 W6         N/A   WCI  33
* JUDITH GAP   N/A       43  28  56 NE8        N/A
* LOMA         N/A       39  32  76 SW4        N/A
$$

MTZ017>020-022>027-061-062-300900-
NORTHEAST MONTANA
CITY           SKY/WX    TMP DP  RH WIND       PRES   REMARKS
GLASGOW        CLEAR     30  28  92 NE7       30.20R WCI  23
GLENDIVE       CLEAR     34  30  85 NW10      30.18R WCI  26
JORDAN         CLEAR     30  28  92 CALM      30.18R
SIDNEY         MOCLDY    34  30  85 W6        30.19R WCI  29
WOLF POINT     CLOUDY    36  32  85 W3        30.22R
* BEAVER HILL  N/A       34  32  92 N/A        N/A
* CIRCLE       N/A       35  31  85 E2         N/A
* LINDSAY DVD  N/A       33  31  92 NW10       N/A   WCI  25
* NAVAJO       N/A       36  32  85 N17        N/A   WCI  26
* PLENTYWOOD A N/A       36  32  85 NW14       N/A   WCI  27
* POPLAR APT   N/A       37  34  89 N/A        N/A
$$

MTZ028>042-056>058-300900-
SOUTHCENTRAL AND SOUTHEAST MONTANA
CITY           SKY/WX    TMP DP  RH WIND       PRES   REMARKS
BAKER          CLEAR     36  30  79 W9        30.15R WCI  29
BILLINGS       CLEAR     46  28  50 NW12      30.22S
LIVINGSTON     CLEAR     32  27  82 W3        30.27R
MILES CITY     CLOUDY    39  30  70 NW7       30.17R WCI  34
* FORSYTH APT  CLEAR     43  30  60 SW6        N/A
* LAUREL APT   CLEAR     41  27  58 N/A        N/A
* ROUNDUP APT  CLEAR     39  27  62 N/A        N/A
* ALZADA       N/A       36  30  79 W4         N/A
* HYSHAM       N/A       43  27  53 W2         N/A
* LAME DEER    N/A       45  30  56 NW9G15     N/A
* REED POINT   N/A       32  27  82 NW2        N/A
* ROSCOE HILL  N/A       40  17  39 E7         N/A   WCI  35
$$

REGIONAL REPORTS...DAKOTAS
CITY           SKY/WX    TMP DP  RH WIND       PRES   REMARKS
WILLISTON      MOCLDY    36  30  79 N9        30.14R WCI  29
DICKINSON      CLEAR     36  32  85 NW12      30.07R WCI  28
BEACH          N/A       32  32 100 NW6       30.15R WCI  26
CROSBY         CLOUDY    36  36 100 N9        30.15R WCI  29
TIOGA          FOG       32  32 100 NW7       30.15R VSB 2    WCI  25
BISMARCK       CLEAR     37  37 100 NW8       30.03R WCI  31
GRAND FORKS    CLOUDY    37  34  89 NE7       30.01R WCI  32
FARGO          LGT RAIN  39  37  93 S5        29.99R WCI  35
BUFFALO SD     PTCLDY    37  30  76 NW14      30.06R WCI  28
RAPID CITY     PTCLDY    41  32  70 NW9       30.14R
$$

REGIONAL REPORTS...WYOMING/IDAHO/WASHINGTON
CITY           SKY/WX    TMP DP  RH WIND       PRES   REMARKS
GILLETTE       CLEAR     39  25  57 W12       30.22R WCI  32
SHERIDAN       PTCLDY    39  27  62 W9        30.24R WCI  33
CODY           CLEAR     34  25  70 SE5       30.26R WCI  29
YELLOWSTONE LA PTCLDY    25  23  92 CALM      30.36S
SALMON         PTCLDY    37  32  82 CALM      30.27R
MULLAN PASS    FOG       34  34 100 S8        30.23S VSB M1/4 WCI  27
SAND POINT     MOCLDY    43  43 100 NE8       30.22F
SPOKANE        FOG       46  45  96 NE8       30.17F VSB 3/4
$$

REGIONAL REPORTS...ALBERTA
CITY           SKY/WX    TMP DP  RH WIND       PRES   REMARKS
CALGARY        FOG       30  28  92 SE3       30.15R
LETHBRIDGE     CLEAR     34  32  92 VRB2      30.17R
MEDICINE HAT   FOG       32  32 100 NE9       30.20R VSB 3/4  WCI  24
EDMONTON       MOCLDY    32  30  92 SE7       30.20R WCI  25
WATERTON GATE  N/A       43  36  76 SW16G25    N/A
CARDSTON       N/A       30  28  92 S1         N/A
MILK RIVER     N/A       32  30  92 W9         N/A   WCI  24
$$

REGIONAL REPORTS...SASKATCHEWAN
CITY           SKY/WX    TMP DP  RH WIND       PRES   REMARKS
SWIFT CURRENT  FOG       30  30 100 N6        30.20R WCI  24
REGINA         CLOUDY    34  30  85 N8        30.21R WCI  27
VAL MARIE      N/A       32  30  92 N6         N/A   WCI  26
ASSINIBOIA     N/A       34  30  85 N10        N/A   WCI  26

$$




USA.gov is the U.S. government's official web portal to all federal, state and local government web resources and services.